[[{"header":{"parameterUnit":"m.s-1","parameterCategory":1,"la1":30.2991,"la2":30.254,"lo1":-89.0895,"lo2":-89.0444,"dy":0.0017,"dx":0.0017,"nx":28,"ny":28,"refTime":"2025-05-14T21:00:00:Z","depth":0,"parameterNumber":2,"parameterNumberName":"U-component_of_WINDS"},"data":[0,0,0,0,0,0,0,0,0,0,0,0,0,0,0,0,0,0,0,0,0,0,0,0,0,0,0,0,0,0,0,0,0,0,0,0,0,0,0,0,0,0,0,0,0,0,0,0,0,0,0,0,0,0,0,0,0,0,2.7488,2.7488,0,2.7511,2.7512,2.7512,2.7489,2.7488,2.7487,2.7486,2.751,2.7511,2.7513,0,0,0,0,0,0,0,0,0,0,0,0,0,2.7422,2.7423,2.7488,2.7488,2.7489,2.7511,2.7512,2.7512,2.7489,2.7488,2.7487,2.7486,2.7509,2.7511,2.7513,0,0,0,0,0,0,0,0,0,0,0,0,0,2.7449,2.7424,2.7488,2.748,2.7479,2.7511,2.7512,2.7512,2.7489,2.7488,2.7487,2.7485,2.7509,2.7511,2.7513,2.7554,0,0,2.752,2.7521,0,0,0,0,0,0,0,0,2.7447,2.7451,2.7481,2.748,2.748,2.7496,2.7497,2.7526,2.749,2.7486,2.7486,2.7485,2.7506,2.7508,2.7516,2.7555,2.7556,2.752,2.7521,2.7522,2.7523,0,0,0,0,0,0,0,2.7445,2.745,2.7497,2.7481,2.7481,2.7475,2.7477,2.7502,2.7503,2.7486,2.7484,2.7487,2.7506,2.7514,2.7516,2.7556,2.752,2.7522,2.7523,2.7524,2.763,2.7631,0,0,0,0,0,0,2.7445,2.7449,2.7496,2.7498,2.746,2.7477,2.748,2.7492,2.7503,2.7503,2.7489,2.7486,2.7511,2.7514,2.7517,2.7565,2.7522,2.7524,2.7525,2.7628,2.763,2.7631,0,0,0,0,0,0,2.7443,2.7449,2.7495,2.7473,2.7478,2.748,2.7494,2.7493,2.7501,2.7505,2.7505,2.7497,2.751,2.7514,2.7545,2.7566,2.7525,2.7527,2.7626,2.7629,2.7631,2.7662,0,0,0,0,0,0,2.7441,2.7449,2.7464,2.7473,2.748,2.7523,2.7495,2.7495,2.7505,2.7503,2.7513,2.7513,2.7509,2.7542,2.7547,2.7568,2.7529,2.7624,2.7627,2.763,2.7659,2.7665,2.767,0,0,0,0,0,2.7439,2.7472,2.7465,2.7471,2.7499,2.7524,2.7528,2.7523,2.7507,2.7523,2.7525,2.7513,2.7563,2.7545,2.7551,2.7573,2.7623,2.7627,2.763,2.7657,2.7664,2.767,0,0,0,0,0,0,2.7465,2.7473,2.7466,2.7503,2.7513,2.7521,2.754,2.7531,2.7546,2.7543,2.7536,2.7538,2.7571,2.7575,2.7555,2.7613,2.759,2.7595,2.7609,2.7616,2.7621,2.7619,2.7531,0,0,0,0,0,2.7475,2.7495,2.7501,2.7533,2.7539,2.7539,2.7549,2.7545,2.7555,2.7559,2.7564,2.7574,2.7592,2.7604,2.7621,2.766,2.7661,2.7678,2.7683,2.7688,2.7692,2.7712,2.772,2.7642,2.7642,2.7642,0,0,2.7496,2.7503,2.7516,2.7539,2.7546,2.7567,2.7543,2.7565,2.7581,2.7563,2.7592,2.7596,2.7607,2.7642,2.7658,2.7646,2.7714,2.7692,2.7696,2.7697,2.7717,2.7724,2.773,2.7645,2.7644,2.7644,0,0,2.7545,2.7552,2.758,2.7588,2.76,2.76,2.7606,2.7615,2.7617,2.7647,2.7634,2.7651,2.7683,2.7691,2.7699,2.7752,2.774,2.7757,2.7786,2.7806,2.7812,2.7817,2.7835,2.7842,2.7761,2.7761,2.7761,0,2.7569,2.76,2.7595,2.7619,2.7629,2.7614,2.7642,2.765,2.7667,2.7674,2.7661,2.77,2.7706,2.7743,2.7756,2.7763,2.777,2.7756,2.7812,2.7817,2.7822,2.7839,2.7846,2.7763,2.7763,2.7763,2.7763,0,2.7629,2.7651,2.7672,2.7689,2.7701,2.7727,2.7725,2.7738,2.7733,2.7734,2.7764,2.7771,2.7789,2.7797,2.7792,2.7833,2.7826,2.7813,2.779,2.7831,2.7847,2.7854,2.7766,2.7765,2.7765,2.7764,0,0,2.7694,2.7708,2.7716,2.7724,2.7736,2.7752,2.7777,2.7795,2.7806,2.7819,2.7839,2.7866,2.7854,2.7863,2.7859,2.7876,2.7917,2.7861,2.7861,2.787,2.7962,2.7972,2.798,2.791,2.7911,2.7912,2.7961,0,2.7743,2.7787,2.7783,2.7824,2.7844,2.783,2.7852,2.7862,2.7863,2.788,2.7882,2.7901,2.7883,2.7889,2.7906,2.7908,2.7935,2.7905,2.7928,2.7929,2.7925,2.7988,2.7998,2.8044,2.7967,2.7968,2.7969,0,2.7805,2.782,2.7864,2.7873,2.7881,2.7901,2.7917,2.7933,2.7944,2.7944,2.7955,2.7947,2.7972,2.7949,2.7982,2.7962,2.7971,2.7974,2.7975,2.7977,2.7951,2.7991,2.8059,2.8066,2.7979,2.7978,2.7978,0,2.7848,2.7879,2.7909,2.7916,2.7927,2.7941,2.7947,2.7956,2.7967,2.7981,2.7988,2.8005,2.8014,2.8027,2.8024,2.8007,2.8058,2.8035,2.8058,2.8058,2.8069,2.8068,2.8139,2.8076,2.8076,2.8076,2.8075,0,2.7902,2.7929,2.7928,2.7946,2.7976,2.7971,2.8001,2.8004,2.8013,2.8032,2.8021,2.8038,2.8034,2.8051,2.8048,2.8076,2.8081,2.8081,2.808,2.8082,2.8082,2.8087,2.8084,2.8077,2.8077,2.8077,2.8076,0,2.7955,2.7955,2.7987,2.7996,2.7999,2.802,2.8027,2.8044,2.8045,2.8069,2.8074,2.8075,2.8095,2.8094,2.8116,2.8114,2.8149,2.8144,2.8145,2.8144,2.8167,2.8165,2.8244,2.8254,2.8185,2.8185,2.8186,0,2.7989,2.801,2.8021,2.8033,2.804,2.8059,2.807,2.8067,2.8079,2.8093,2.8108,2.8127,2.8141,2.8173,2.8176,2.8193,2.8188,2.8215,2.8191,2.8192,2.8188,2.8187,2.8189,2.8219,2.822,2.8221,2.8221,0,2.805,2.805,2.8067,2.8084,2.8098,2.8111,2.8123,2.8134,2.8131,2.8145,2.8165,2.8177,2.82,2.8218,2.8234,2.8239,2.823,2.8229,2.8235,2.8237,2.8237,2.8237,2.8158,2.8227,2.8227,2.8226,2.8226,2.8226,2.8094,2.8112,2.8123,2.8142,2.8151,2.8163,2.8179,2.8183,2.82,2.8218,2.8215,2.8238,2.8248,2.8268,2.8275,2.8292,2.8282,2.8292,2.8294,2.8296,2.8299,2.8234,2.8295,2.8295,2.8295,2.8295,2.8294,0,2.8155,2.8161,2.8179,2.8197,2.8212,2.8203,2.8215,2.8229,2.8249,2.8259,2.8274,2.8297,2.8316,2.832,2.8337,2.835,2.8346,2.8355,2.8353,2.8355,2.8306,2.8299,2.8358,2.8358,2.8358,2.8358,2.8358,2.8358,2.8188,2.8217,2.8218,2.8251,2.8257,2.828,2.8288,2.8299,2.8307,2.8334,2.8349,2.8352,2.8359,2.8377,2.8393,2.8394,2.84,2.8411,2.841,2.8364,2.8358,2.8352,2.8345,2.8412,2.8412,2.8456,2.8457,2.8457]},{"header":{"parameterUnit":"m.s-1","parameterCategory":1,"la1":30.2991,"la2":30.254,"lo1":-89.0895,"lo2":-89.0444,"dy":0.0017,"dx":0.0017,"nx":28,"ny":28,"refTime":"2025-05-14T21:00:00:Z","depth":0,"parameterNumber":3,"parameterNumberName":"V-component_of_WINDS"},"data":[0,0,0,0,0,0,0,0,0,0,0,0,0,0,0,0,0,0,0,0,0,0,0,0,0,0,0,0,0,0,0,0,0,0,0,0,0,0,0,0,0,0,0,0,0,0,0,0,0,0,0,0,0,0,0,0,0,0,4.0201,4.0201,0,4.019,4.019,4.019,4.0165,4.0164,4.0164,4.0163,4.0151,4.0151,4.0151,0,0,0,0,0,0,0,0,0,0,0,0,0,4.0201,4.0201,4.0201,4.0201,4.0201,4.019,4.019,4.019,4.0165,4.0164,4.0164,4.0163,4.0151,4.0151,4.0151,0,0,0,0,0,0,0,0,0,0,0,0,0,4.0196,4.0201,4.0201,4.0187,4.0186,4.019,4.019,4.019,4.0165,4.0164,4.0163,4.0163,4.0151,4.0151,4.0152,4.0168,0,0,4.0152,4.0152,0,0,0,0,0,0,0,0,4.0197,4.0196,4.0189,4.0188,4.0187,4.0178,4.0185,4.0183,4.0165,4.0173,4.0163,4.0162,4.0161,4.016,4.016,4.0168,4.0167,4.0152,4.0152,4.0153,4.0153,0,0,0,0,0,0,0,4.0197,4.0197,4.0197,4.0189,4.0188,4.0181,4.018,4.0185,4.0171,4.0172,4.017,4.0169,4.016,4.016,4.0159,4.0167,4.0152,4.0152,4.0153,4.0153,4.019,4.019,0,0,0,0,0,0,4.0199,4.0197,4.0197,4.0196,4.019,4.0182,4.018,4.0182,4.0171,4.0169,4.017,4.0168,4.0159,4.0159,4.0159,4.0178,4.0153,4.0153,4.0153,4.0189,4.019,4.0191,0,0,0,0,0,0,4.0199,4.02,4.0198,4.0196,4.0196,4.0183,4.0184,4.0182,4.0181,4.017,4.0167,4.0172,4.0159,4.0158,4.0166,4.0178,4.0153,4.0153,4.0188,4.0189,4.019,4.0218,0,0,0,0,0,0,4.0199,4.02,4.0206,4.0197,4.0196,4.0206,4.0185,4.0182,4.0182,4.018,4.0171,4.0169,4.0158,4.0166,4.0167,4.0177,4.0153,4.0187,4.0188,4.019,4.0216,4.022,4.0223,0,0,0,0,0,4.02,4.0214,4.0206,4.0207,4.0203,4.0206,4.0206,4.0194,4.0183,4.0189,4.0182,4.0169,4.0176,4.0167,4.0168,4.0179,4.0186,4.0188,4.019,4.0214,4.0219,4.0223,0,0,0,0,0,0,4.0224,4.0212,4.0204,4.0216,4.0212,4.0202,4.0209,4.0199,4.0198,4.0196,4.0181,4.0179,4.0189,4.0185,4.0175,4.0195,4.0179,4.0181,4.0197,4.0202,4.0206,4.0206,4.0153,0,0,0,0,0,4.0231,4.0235,4.0224,4.0235,4.0234,4.0222,4.0223,4.0214,4.021,4.0208,4.0201,4.0197,4.0199,4.02,4.0201,4.0215,4.0213,4.0223,4.0226,4.0229,4.0231,4.0239,4.0243,4.0197,4.0197,4.0197,0,0,4.0245,4.0239,4.0242,4.024,4.0236,4.0241,4.0221,4.0226,4.0229,4.0209,4.0216,4.0211,4.0206,4.0217,4.0222,4.0214,4.0244,4.0232,4.0234,4.0235,4.0242,4.0246,4.025,4.0198,4.0198,4.0198,0,0,4.0273,4.0269,4.0278,4.0275,4.027,4.0262,4.0264,4.0256,4.0252,4.0259,4.0244,4.0248,4.025,4.0248,4.0246,4.0274,4.0263,4.0275,4.0294,4.0302,4.0306,4.0309,4.0319,4.0323,4.0277,4.0277,4.0277,0,4.0291,4.0297,4.0284,4.029,4.029,4.0273,4.0282,4.028,4.0275,4.0275,4.0266,4.027,4.0265,4.0276,4.0283,4.0282,4.0285,4.0276,4.0306,4.0309,4.0312,4.0322,4.0326,4.0279,4.0278,4.0278,4.0278,0,4.0319,4.0324,4.0332,4.0329,4.0329,4.0337,4.0325,4.0328,4.0319,4.0312,4.032,4.0314,4.0313,4.0315,4.0306,4.0325,4.032,4.0309,4.0293,4.0318,4.0327,4.0331,4.0281,4.028,4.028,4.0279,0,0,4.0362,4.0352,4.0355,4.0354,4.0347,4.035,4.0358,4.0358,4.036,4.0358,4.0364,4.0367,4.0357,4.0355,4.0346,4.0353,4.0376,4.0341,4.0341,4.0348,4.0397,4.0406,4.041,4.0369,4.0369,4.037,4.0398,0,4.0388,4.04,4.0389,4.0404,4.0408,4.0392,4.0398,4.0395,4.0389,4.0392,4.0385,4.0388,4.0374,4.0373,4.0379,4.0372,4.0386,4.037,4.0374,4.0375,4.0376,4.0415,4.0424,4.0451,4.0401,4.0402,4.0402,0,4.042,4.042,4.0435,4.0429,4.043,4.0436,4.0435,4.0438,4.0434,4.043,4.0429,4.0418,4.0425,4.0409,4.0419,4.0408,4.0409,4.0406,4.0407,4.0407,4.039,4.0416,4.0459,4.0463,4.0407,4.0407,4.0407,0,4.045,4.0454,4.0463,4.0463,4.0455,4.046,4.0457,4.0452,4.0453,4.0453,4.0454,4.0454,4.0454,4.0454,4.0444,4.0434,4.0455,4.0438,4.0452,4.0452,4.0457,4.0457,4.05,4.0457,4.0457,4.0457,4.0457,0,4.0481,4.0491,4.0477,4.0483,4.0493,4.0481,4.0492,4.0487,4.0484,4.0488,4.0474,4.0479,4.0465,4.0468,4.046,4.047,4.047,4.0466,4.0464,4.0468,4.0468,4.0468,4.0466,4.0458,4.0458,4.0458,4.0457,0,4.0516,4.0507,4.0517,4.0509,4.0508,4.0516,4.0509,4.0515,4.0508,4.0515,4.0515,4.0505,4.0508,4.0498,4.05,4.0494,4.0508,4.0503,4.051,4.0508,4.0522,4.0521,4.0567,4.0573,4.0526,4.0526,4.0527,0,4.0536,4.0544,4.0537,4.054,4.0538,4.0542,4.0543,4.0531,4.0533,4.053,4.0536,4.0538,4.0539,4.0546,4.0538,4.054,4.0534,4.055,4.0534,4.0538,4.0535,4.0535,4.0536,4.0554,4.0554,4.0555,4.0555,0,4.0574,4.0569,4.0571,4.0573,4.0575,4.0575,4.0574,4.0577,4.0564,4.0567,4.0571,4.0572,4.0574,4.0577,4.0576,4.0573,4.0562,4.056,4.0564,4.0568,4.0572,4.057,4.0519,4.0559,4.0559,4.0559,4.0558,4.0558,4.0602,4.0608,4.0605,4.0608,4.0607,4.0607,4.0612,4.0606,4.0609,4.061,4.0603,4.0608,4.0605,4.0604,4.0602,4.0606,4.0599,4.0603,4.0604,4.0606,4.0608,4.0571,4.0606,4.0606,4.0606,4.0606,4.0605,0,4.0639,4.0636,4.064,4.0639,4.0642,4.0632,4.0631,4.0634,4.0639,4.0637,4.0639,4.0644,4.0647,4.064,4.0642,4.0646,4.0641,4.0647,4.0647,4.0646,4.0615,4.0612,4.0651,4.0651,4.0651,4.0651,4.0651,4.0651,4.0658,4.0668,4.0664,4.0673,4.067,4.0676,4.0676,4.0676,4.0675,4.0681,4.0683,4.0679,4.0675,4.0677,4.0679,4.0677,4.0678,4.0686,4.0682,4.0653,4.0648,4.0644,4.0642,4.0686,4.0686,4.0714,4.0714,4.0714]}]]